TimeMDT,TemperatureF,Dew PointF,Humidity,Sea Level PressureIn,VisibilityMPH,Wind Direction,Wind SpeedMPH,Gust SpeedMPH,PrecipitationIn,Events,Conditions,WindDirDegrees,DateUTC
12:53 AM,41.0,28.9,62,29.67,10.0,West,6.9,-,N/A,,Clear,260,2013-04-17 06:53:00
1:53 AM,39.9,30.0,68,29.65,10.0,West,6.9,-,N/A,,Clear,280,2013-04-17 07:53:00
2:53 AM,37.0,30.0,76,29.63,10.0,West,5.8,-,N/A,,Clear,270,2013-04-17 08:53:00
3:53 AM,35.1,28.9,78,29.65,10.0,WNW,5.8,-,N/A,,Clear,300,2013-04-17 09:53:00
4:53 AM,32.0,26.1,79,29.66,10.0,ENE,5.8,-,N/A,,Clear,70,2013-04-17 10:53:00
5:53 AM,30.0,26.1,85,29.67,10.0,North,9.2,-,N/A,,Clear,10,2013-04-17 11:53:00
6:53 AM,36.0,28.9,76,29.67,10.0,NNE,9.2,-,N/A,,Clear,30,2013-04-17 12:53:00
7:53 AM,42.1,32.0,67,29.67,10.0,East,5.8,-,N/A,,Clear,80,2013-04-17 13:53:00
8:48 AM,44.6,33.8,66,29.78,10.0,East,6.9,-,N/A,,Mostly Cloudy,80,2013-04-17 14:48:00
8:53 AM,45.0,33.1,63,29.65,10.0,East,5.8,-,N/A,,Mostly Cloudy,100,2013-04-17 14:53:00
9:32 AM,46.4,33.8,62,29.76,10.0,SSE,6.9,-,N/A,,Scattered Clouds,150,2013-04-17 15:32:00
9:53 AM,46.9,33.1,59,29.62,10.0,Variable,3.5,-,N/A,,Partly Cloudy,0,2013-04-17 15:53:00
10:53 AM,51.1,34.0,52,29.57,10.0,Variable,5.8,-,N/A,,Clear,0,2013-04-17 16:53:00
11:53 AM,57.9,28.0,32,29.50,10.0,SSE,18.4,29.9,N/A,,Scattered Clouds,160,2013-04-17 17:53:00
12:53 PM,62.1,28.0,28,29.46,10.0,SSE,21.9,33.4,N/A,,Scattered Clouds,160,2013-04-17 18:53:00
1:29 PM,51.8,28.4,41,29.65,10.0,NNE,24.2,36.8,N/A,,Mostly Cloudy,20,2013-04-17 19:29:00
1:53 PM,46.0,28.0,50,29.56,10.0,North,23.0,29.9,N/A,,Mostly Cloudy,360,2013-04-17 19:53:00
2:53 PM,41.0,26.1,55,29.60,10.0,North,21.9,27.6,N/A,,Overcast,360,2013-04-17 20:53:00
3:53 PM,37.0,27.0,67,29.61,10.0,North,25.3,32.2,0.00,,Overcast,10,2013-04-17 21:53:00
4:53 PM,33.1,26.1,75,29.68,3.0,North,21.9,34.5,0.01,Snow,Light Snow,350,2013-04-17 22:53:00
5:10 PM,32.0,26.6,80,29.70,2.0,NNW,27.6,36.8,0.00,Snow,Light Snow,340,2013-04-17 23:10:00
5:18 PM,30.2,26.6,86,29.70,1.5,North,24.2,36.8,0.00,Snow,Light Snow,360,2013-04-17 23:18:00
5:31 PM,30.2,26.6,86,29.74,2.0,NNW,20.7,26.5,0.00,Snow,Light Snow,340,2013-04-17 23:31:00
5:40 PM,30.2,26.6,86,29.74,0.8,North,26.5,29.9,0.01,Snow,Light Snow,350,2013-04-17 23:40:00
5:50 PM,28.4,26.6,93,29.74,0.2,North,20.7,-,0.04,Fog-Snow,Heavy Snow,360,2013-04-17 23:50:00
5:53 PM,28.9,27.0,92,29.79,0.2,North,15.0,26.5,0.05,Fog-Snow,Snow,360,2013-04-17 23:53:00
6:00 PM,28.4,26.6,93,29.76,0.2,North,16.1,25.3,0.02,Fog-Snow,Snow,360,2013-04-18 00:00:00
6:18 PM,28.4,26.6,93,29.80,0.5,North,15.0,-,0.03,Fog-Snow,Snow,360,2013-04-18 00:18:00
6:31 PM,28.4,26.6,93,29.75,0.5,North,18.4,29.9,0.04,Fog-Snow,Light Snow,10,2013-04-18 00:31:00
6:53 PM,28.9,27.0,92,29.78,0.2,NNE,15.0,-,0.05,Fog-Snow,Snow,20,2013-04-18 00:53:00
7:02 PM,28.4,26.6,93,29.81,0.2,NNE,15.0,-,0.01,Fog-Snow,Snow,30,2013-04-18 01:02:00
7:06 PM,28.4,26.6,93,29.79,0.5,NNE,15.0,-,0.01,Fog-Snow,Snow,20,2013-04-18 01:06:00
7:51 PM,28.4,26.6,93,29.83,0.5,NNE,18.4,-,0.04,Fog-Snow,Snow,30,2013-04-18 01:51:00
7:53 PM,28.0,26.1,92,29.81,0.5,NNE,17.3,-,0.04,Fog-Snow,Snow,30,2013-04-18 01:53:00
8:53 PM,26.1,23.0,88,29.86,0.5,NNE,19.6,29.9,0.06,Fog-Snow,Snow,20,2013-04-18 02:53:00
9:04 PM,26.6,23.0,86,29.90,1.0,NNE,17.3,-,0.00,Snow,Light Snow,30,2013-04-18 03:04:00
9:20 PM,26.6,23.0,86,29.91,2.0,NNE,16.1,-,0.00,Snow,Light Snow,30,2013-04-18 03:20:00
9:27 PM,26.6,21.2,80,29.90,4.0,NNE,16.1,-,0.01,Snow,Light Snow,20,2013-04-18 03:27:00
9:53 PM,26.1,18.0,71,29.88,10.0,North,23.0,-,0.01,,Overcast,10,2013-04-18 03:53:00
10:53 PM,21.9,15.1,75,29.88,5.0,North,28.8,-,0.00,Snow,Blowing Snow,10,2013-04-18 04:53:00
11:36 PM,21.2,15.8,80,29.92,2.0,North,31.1,39.1,N/A,Snow,Blowing Snow,360,2013-04-18 05:36:00
11:53 PM,21.0,15.1,78,29.87,2.5,North,31.1,38.0,N/A,Snow,Blowing Snow,360,2013-04-18 05:53:00